Overview Statistics Trail Chart Weather Telemetry Raw packets
 

This is the latest recevied weather packets stored in our database for station/object WA6ODQ-13. If no packets are shown the sender has not sent any weather packets the latest 10 day(s).

<< 104 105 106 107 108 109 110 >>
Time Temp. Humidity Pressure Rain* Wind** Luminosity Snow
1787883218 29.44° C 37% 1010.8 hPa 0 mm - 20 W/m² -
1787882913 29.44° C 36% 1010.9 hPa 0 mm - 23 W/m² -
1787882610 29.44° C 37% 1010.9 hPa 0 mm - 26 W/m² -
1787882306 29.44° C 38% 1011.1 hPa 0 mm - 32 W/m² -
1787882000 29.44° C 37% 1011.1 hPa 0 mm - 40 W/m² -
1787881695 29.44° C 38% 1011.2 hPa 0 mm - 50 W/m² -
1787881391 29.44° C 39% 1011.3 hPa 0 mm - 51 W/m² -
1787881086 29.44° C 39% 1011.3 hPa 0 mm - 54 W/m² -
1787880781 29.44° C 40% 1011.1 hPa 0 mm - 58 W/m² -
1787880480 30° C 39% 1011.2 hPa 0 mm - 56 W/m² -
1787880174 30° C 39% 1011.3 hPa 0 mm - 68 W/m² -
1787879868 30.56° C 37% 1011.1 hPa 0 mm - 84 W/m² -
1787879558 30.56° C 37% 1011.2 hPa 0 mm - 73 W/m² -
1787879254 30.56° C 37% 1011.1 hPa 0 mm - 96 W/m² -
1787878951 30.56° C 37% 1011.2 hPa 0 mm - 106 W/m² -
1787878650 30.56° C 37% 1011 hPa 0 mm - 108 W/m² -
1787878345 30.56° C 36% 1011.1 hPa 0 mm - 115 W/m² -
1787878040 30.56° C 37% 1011.2 hPa 0 mm - 129 W/m² -
1787877736 31.11° C 36% 1011.3 hPa 0 mm - 117 W/m² -
1787877431 31.11° C 36% 1011.4 hPa 0 mm - 120 W/m² -
1787877128 31.11° C 35% 1011.2 hPa 0 mm - 127 W/m² -
1787876827 31.11° C 35% 1011.1 hPa 0 mm - 126 W/m² -
1787876522 31.67° C 36% 1011.1 hPa 0 mm - 126 W/m² -
1787876221 31.67° C 36% 1011.1 hPa 0 mm - 132 W/m² -
1787875921 31.67° C 36% 1011.1 hPa 0 mm - 146 W/m² -

* Rain latest hour (hover to see other rain measurements)
** Current wind speed in m/s (hover to see current wind gust speed)